Weather in Panitskaya

Russia / Saratov Oblast     51°10′56″N   45°29′57″E
temp.,
°C
wind,
m/s
gust,
m/s
humid.,
%
clouds,
%
prec.,
mm/h
press.,
hPa
HPBL,
m
23 april, fri
fri2301:00+10e117436 0.0 102310
04:00+8ene22815 0.0 102310
07:00+9ene2484100 0.0 102384
10:00+12ese4572100 0.1 1023503
13:00+13ese5664100 0.1 1022717
16:00+14ese3457100 0.9 10201118
19:00+12ssw1171100 2.0 101955
22:00+10wnw2484100 2.9 1019130
24 april, sat
sat2401:00+9nw2386100 0.0 101771
04:00+9nw118759 0.0 101518
07:00+8sw228572 0.0 101583
10:00+12ssw4568100 0.0 1014793
13:00+14sw795698 1.9 10121548
16:00+14sw9115572 2.2 10101768
19:00+9wsw81484100 1.3 10111176
22:00+6w8127581 1.4 1012883
25 april, sun
sun2501:00+5wsw914725 0.1 10121110
04:00+3wsw1016704 0.1 1013853
07:00+2w9158130 0.0 1015884
10:00+3w91371100 0.0 10171080
13:00+6w9116297 0.0 10181312
16:00+7w795583 0.0 10191552
19:00+7wsw48632 0.0 1019619
22:00+4sw356297 0.0 102076
26 april, mon
mon2601:00+4sw2265100 0.0 102115
04:00+3ssw2263100 0.0 102011
07:00+4s2467100 0.0 102095
10:00+9s3448100 0.0 1018967
13:00+11sse444182 0.0 10171933
16:00+12se444061 0.0 10151983
19:00+11sse3551100 0.0 1013189
22:00+8s365784 0.0 1013119
27 april, tue
tue2701:00+6sw410775 0.0 1012238
04:00+5w6109396 0.0 1012484
07:00+4wnw6883100 0.0 1013772
10:00+7w67616 0.0 10141002
13:00+10wsw81043100 0.0 10142404
16:00+10w9123991 0.0 10132518
19:00+9w7104856 0.0 10141323
22:00+5w411585 0.0 1016243